Погода в Седуне

Австралия     32°07′45″S   133°41′04″E
темп.,
°C
ветер,
м/с
пор.,
м/с
влажн.,
%
обл.,
%
осадки,
мм/ч
давл.,
гПа
погр.,
м
15 мая, сб
сб1500:30+16ю777168 0.2 1026709
03:30+16ю776399 0.3 10261016
06:30+16ююв6663100 0.1 1027760
09:30+16ююв5563100 0.1 1028825
12:30+16ю65587 0.1 10281036
15:30+16ю556447 0.1 1027772
18:30+16ююв556718 0.1 1028564
21:30+16ююв66621 0.1 1029691
16 мая, вс
вс1600:30+15вюв45650 0.0 1028682
03:30+13в33700 0.0 1028196
06:30+12всв33729 0.0 1029144
09:30+13св336678 0.0 1030240
12:30+15ю215485 0.0 1029554
15:30+16ю43578 0.0 1028544
18:30+15ююв55680 0.0 1028344
21:30+15юв55640 0.0 1029614
17 мая, пн
пн1700:30+14вюв56670 0.0 1029441
03:30+12в45700 0.0 1029186
06:30+11всв45730 0.0 1029187
09:30+13св46630 0.0 1031291
12:30+17св24460 0.0 10291059
15:30+18ю23492 0.0 1027517
18:30+16юв66595 0.0 1028206
21:30+16в34535 0.0 1028144
18 мая, вт
вт1800:30+15св585294 0.0 1027191
03:30+13ссв6955100 0.0 1027230
06:30+13ссв6105399 0.0 1027249
09:30+14ссв7114798 0.0 1028411
12:30+19с794023 0.0 1026482
15:30+20с5638100 0.0 1024395
18:30+19с4441100 0.0 102539
21:30+17ссв4643100 0.0 102596
19 мая, ср
ср1900:30+17ссв5942100 0.0 1025198
03:30+16ссв61143100 0.0 1024330
06:30+15с61144100 0.0 1026305
09:30+17с61041100 0.0 1027339
12:30+20ссз453894 0.0 1026289
15:30+20сз114311 0.0 1025350
18:30+19в233947 0.0 102512
21:30+18всв33394 0.0 102725